Year,Month,Day,Hour,Minute,Value (Times are PST for temperature in C)
2016,08,13,00,00,19.10
2016,08,13,00,01,19.10
2016,08,13,00,02,19.10
2016,08,13,00,03,19.10
2016,08,13,00,04,19.10
2016,08,13,00,05,19.00
2016,08,13,00,06,18.90
2016,08,13,00,07,18.90
2016,08,13,00,08,18.90
2016,08,13,00,09,18.90
2016,08,13,00,10,18.90
2016,08,13,00,11,18.90
2016,08,13,00,12,18.90
2016,08,13,00,13,18.90
2016,08,13,00,14,18.90
2016,08,13,00,15,18.90
2016,08,13,00,16,18.90
2016,08,13,00,17,18.90
2016,08,13,00,18,18.80
2016,08,13,00,19,18.80
2016,08,13,00,20,18.80
2016,08,13,00,21,18.80
2016,08,13,00,22,18.80
2016,08,13,00,23,18.80
2016,08,13,00,24,18.80
2016,08,13,00,25,18.70
2016,08,13,00,26,18.70
2016,08,13,00,27,18.70
2016,08,13,00,28,18.70
2016,08,13,00,29,18.70
2016,08,13,00,30,18.70
2016,08,13,00,31,18.70
2016,08,13,00,32,18.70
2016,08,13,00,33,18.70
2016,08,13,00,34,18.70
2016,08,13,00,35,18.70
2016,08,13,00,36,18.70
2016,08,13,00,37,18.70
2016,08,13,00,38,18.60
2016,08,13,00,39,18.60
2016,08,13,00,40,18.60
2016,08,13,00,41,18.60
2016,08,13,00,42,18.60
2016,08,13,00,43,18.60
2016,08,13,00,44,18.60
2016,08,13,00,45,18.60
2016,08,13,00,46,18.60
2016,08,13,00,47,18.60
2016,08,13,00,48,18.60
2016,08,13,00,49,18.50
2016,08,13,00,50,18.50
2016,08,13,00,51,18.50
2016,08,13,00,52,18.50
2016,08,13,00,53,18.50
2016,08,13,00,54,18.50
2016,08,13,00,55,18.40
2016,08,13,00,56,18.40
2016,08,13,00,57,18.40
2016,08,13,00,58,18.40
2016,08,13,00,59,18.40
2016,08,13,01,00,18.40
2016,08,13,01,01,18.40
2016,08,13,01,02,18.40
2016,08,13,01,03,18.40
2016,08,13,01,04,18.40
2016,08,13,01,05,18.40
2016,08,13,01,06,18.40
2016,08,13,01,07,18.40
2016,08,13,01,08,18.50
2016,08,13,01,09,18.50
2016,08,13,01,10,18.50
2016,08,13,01,11,18.50
2016,08,13,01,12,18.60
2016,08,13,01,13,18.60
2016,08,13,01,14,18.60
2016,08,13,01,15,18.60
2016,08,13,01,16,18.70
2016,08,13,01,17,18.70
2016,08,13,01,18,18.70
2016,08,13,01,19,18.70
2016,08,13,01,20,18.70
2016,08,13,01,21,18.70
2016,08,13,01,22,18.70
2016,08,13,01,23,18.70
2016,08,13,01,24,18.70
2016,08,13,01,25,18.70
2016,08,13,01,26,18.70
2016,08,13,01,27,18.70
2016,08,13,01,28,18.70
2016,08,13,01,29,18.70
2016,08,13,01,30,18.70
2016,08,13,01,31,18.60
2016,08,13,01,32,18.60
2016,08,13,01,33,18.60
2016,08,13,01,34,18.60
2016,08,13,01,35,18.60
2016,08,13,01,36,18.60
2016,08,13,01,37,18.60
2016,08,13,01,38,18.50
2016,08,13,01,39,18.50
2016,08,13,01,40,18.50
2016,08,13,01,41,18.50
2016,08,13,01,42,18.50
2016,08,13,01,43,18.40
2016,08,13,01,44,18.40
2016,08,13,01,45,18.40
2016,08,13,01,46,18.40
2016,08,13,01,47,18.40
2016,08,13,01,48,18.40
2016,08,13,01,49,18.30
2016,08,13,01,50,18.30
2016,08,13,01,51,18.30
2016,08,13,01,52,18.30
2016,08,13,01,53,18.30
2016,08,13,01,54,18.30
2016,08,13,01,55,18.30
2016,08,13,01,56,18.30
2016,08,13,01,57,18.30
2016,08,13,01,58,18.40
2016,08,13,01,59,18.40
2016,08,13,02,00,18.40
2016,08,13,02,01,18.40
2016,08,13,02,02,18.40
2016,08,13,02,03,18.40
2016,08,13,02,04,18.40
2016,08,13,02,05,18.50
2016,08,13,02,06,18.50
2016,08,13,02,07,18.50
2016,08,13,02,08,18.50
2016,08,13,02,09,18.50
2016,08,13,02,10,18.50
2016,08,13,02,11,18.50
2016,08,13,02,12,18.50
2016,08,13,02,13,18.60
2016,08,13,02,14,18.60
2016,08,13,02,15,18.60
2016,08,13,02,16,18.60
2016,08,13,02,17,18.60
2016,08,13,02,18,18.60
2016,08,13,02,19,18.60
2016,08,13,02,20,18.60
2016,08,13,02,21,18.60
2016,08,13,02,22,18.60
2016,08,13,02,23,18.60
2016,08,13,02,24,18.60
2016,08,13,02,25,18.60
2016,08,13,02,26,18.60
2016,08,13,02,27,18.60
2016,08,13,02,28,18.60
2016,08,13,02,29,18.60
2016,08,13,02,30,18.50
2016,08,13,02,31,18.50
2016,08,13,02,32,18.50
2016,08,13,02,33,18.50
2016,08,13,02,34,18.50
2016,08,13,02,35,18.50
2016,08,13,02,36,18.50
2016,08,13,02,37,18.40
2016,08,13,02,38,18.40
2016,08,13,02,39,18.40
2016,08,13,02,40,18.40
2016,08,13,02,41,18.40
2016,08,13,02,42,18.40
2016,08,13,02,43,18.50
2016,08,13,02,44,18.50
2016,08,13,02,45,18.50
2016,08,13,02,46,18.50
2016,08,13,02,47,18.50
2016,08,13,02,48,18.50
2016,08,13,02,49,18.50
2016,08,13,02,50,18.50
2016,08,13,02,51,18.50
2016,08,13,02,52,18.50
2016,08,13,02,53,18.50
2016,08,13,02,54,18.50
2016,08,13,02,55,18.50
2016,08,13,02,56,18.50
2016,08,13,02,57,18.40
2016,08,13,02,58,18.40
2016,08,13,02,59,18.40
2016,08,13,03,00,18.40
2016,08,13,03,01,18.40
2016,08,13,03,02,18.40
2016,08,13,03,03,18.30
2016,08,13,03,04,18.30
2016,08,13,03,05,18.30
2016,08,13,03,06,18.30
2016,08,13,03,07,18.30
2016,08,13,03,08,18.30
2016,08,13,03,09,18.30
2016,08,13,03,10,18.30
2016,08,13,03,11,18.30
2016,08,13,03,12,18.20
2016,08,13,03,13,18.20
2016,08,13,03,14,18.20
2016,08,13,03,15,18.20
2016,08,13,03,16,18.20
2016,08,13,03,17,18.20
2016,08,13,03,18,18.20
2016,08,13,03,19,18.20
2016,08,13,03,20,18.20
2016,08,13,03,21,18.20
2016,08,13,03,22,18.20
2016,08,13,03,23,18.20
2016,08,13,03,24,18.20
2016,08,13,03,25,18.20
2016,08,13,03,26,18.20
2016,08,13,03,27,18.10
2016,08,13,03,28,18.10
2016,08,13,03,29,18.10
2016,08,13,03,30,18.10
2016,08,13,03,31,18.00
2016,08,13,03,32,17.90
2016,08,13,03,33,17.90
2016,08,13,03,34,17.90
2016,08,13,03,35,17.90
2016,08,13,03,36,17.90
2016,08,13,03,37,17.90
2016,08,13,03,38,17.90
2016,08,13,03,39,17.90
2016,08,13,03,40,17.90
2016,08,13,03,41,17.90
2016,08,13,03,42,17.90
2016,08,13,03,43,17.90
2016,08,13,03,44,17.90
2016,08,13,03,45,17.90
2016,08,13,03,46,17.90
2016,08,13,03,47,17.90
2016,08,13,03,48,17.90
2016,08,13,03,49,17.90
2016,08,13,03,50,17.90
2016,08,13,03,51,17.90
2016,08,13,03,52,17.90
2016,08,13,03,53,17.90
2016,08,13,03,54,17.90
2016,08,13,03,55,17.90
2016,08,13,03,56,17.90
2016,08,13,03,57,17.90
2016,08,13,03,58,17.90
2016,08,13,03,59,17.90
2016,08,13,04,00,17.90
2016,08,13,04,01,17.90
2016,08,13,04,02,17.90
2016,08,13,04,03,17.90
2016,08,13,04,04,17.90
2016,08,13,04,05,17.90
2016,08,13,04,06,17.80
2016,08,13,04,07,17.80
2016,08,13,04,08,17.80
2016,08,13,04,09,17.80
2016,08,13,04,10,17.80
2016,08,13,04,11,17.80
2016,08,13,04,12,17.80
2016,08,13,04,13,17.70
2016,08,13,04,14,17.70
2016,08,13,04,15,17.70
2016,08,13,04,16,17.70
2016,08,13,04,17,17.70
2016,08,13,04,18,17.70
2016,08,13,04,19,17.60
2016,08,13,04,20,17.60
2016,08,13,04,21,17.60
2016,08,13,04,22,17.60
2016,08,13,04,23,17.60
2016,08,13,04,24,17.60
2016,08,13,04,25,17.60
2016,08,13,04,26,17.50
2016,08,13,04,27,17.50
2016,08,13,04,28,17.50
2016,08,13,04,29,17.50
2016,08,13,04,30,17.50
2016,08,13,04,31,17.40
2016,08,13,04,32,17.40
2016,08,13,04,33,17.40
2016,08,13,04,34,17.40
2016,08,13,04,35,17.30
2016,08,13,04,36,17.30
2016,08,13,04,37,17.30
2016,08,13,04,38,17.30
2016,08,13,04,39,17.30
2016,08,13,04,40,17.30
2016,08,13,04,41,17.30
2016,08,13,04,42,17.30
2016,08,13,04,43,17.30
2016,08,13,04,44,17.30
2016,08,13,04,45,17.30
2016,08,13,04,46,17.30
2016,08,13,04,47,17.30
2016,08,13,04,48,17.30
2016,08,13,04,49,17.30
2016,08,13,04,50,17.30
2016,08,13,04,51,17.30
2016,08,13,04,52,17.30
2016,08,13,04,53,17.30
2016,08,13,04,54,17.30
2016,08,13,04,55,17.20
2016,08,13,04,56,17.20
2016,08,13,04,57,17.20
2016,08,13,04,58,17.20
2016,08,13,04,59,17.20
2016,08,13,05,00,17.20
2016,08,13,05,01,17.20
2016,08,13,05,02,17.20
2016,08,13,05,03,17.20
2016,08,13,05,04,17.20
2016,08,13,05,05,17.20
2016,08,13,05,06,17.20
2016,08,13,05,07,17.20
2016,08,13,05,08,17.10
2016,08,13,05,09,17.10
2016,08,13,05,10,17.00
2016,08,13,05,11,17.00
2016,08,13,05,12,17.00
2016,08,13,05,13,16.90
2016,08,13,05,14,16.90
2016,08,13,05,15,16.90
2016,08,13,05,16,16.90
2016,08,13,05,17,16.90
2016,08,13,05,18,16.80
2016,08,13,05,19,16.80
2016,08,13,05,20,16.80
2016,08,13,05,21,16.80
2016,08,13,05,22,16.70
2016,08,13,05,23,16.70
2016,08,13,05,24,16.70
2016,08,13,05,25,16.70
2016,08,13,05,26,16.70
2016,08,13,05,27,16.60
2016,08,13,05,28,16.60
2016,08,13,05,29,16.60
2016,08,13,05,30,16.50
2016,08,13,05,31,16.40
2016,08,13,05,32,16.40
2016,08,13,05,33,16.40
2016,08,13,05,34,16.40
2016,08,13,05,35,16.40
2016,08,13,05,36,16.40
2016,08,13,05,37,16.40
2016,08,13,05,38,16.30
2016,08,13,05,39,16.30
2016,08,13,05,40,16.30
2016,08,13,05,41,16.30
2016,08,13,05,42,16.30
2016,08,13,05,43,16.30
2016,08,13,05,44,16.40
2016,08,13,05,45,16.40
2016,08,13,05,46,16.40
2016,08,13,05,47,16.40
2016,08,13,05,48,16.40
2016,08,13,05,49,16.30
2016,08,13,05,50,16.30
2016,08,13,05,51,16.30
2016,08,13,05,52,16.30
2016,08,13,05,53,16.20
2016,08,13,05,54,16.20
2016,08,13,05,55,16.20
2016,08,13,05,56,16.10
2016,08,13,05,57,16.10
2016,08,13,05,58,16.10
2016,08,13,05,59,16.10
2016,08,13,06,00,16.10
2016,08,13,06,01,16.10
2016,08,13,06,02,16.10
2016,08,13,06,03,16.10
2016,08,13,06,04,16.10
2016,08,13,06,05,16.00
2016,08,13,06,06,15.90
2016,08,13,06,07,15.90
2016,08,13,06,08,15.90
2016,08,13,06,09,15.80
2016,08,13,06,10,15.80
2016,08,13,06,11,15.80
2016,08,13,06,12,15.80
2016,08,13,06,13,15.80
2016,08,13,06,14,15.80
2016,08,13,06,15,15.80
2016,08,13,06,16,15.80
2016,08,13,06,17,15.80
2016,08,13,06,18,15.80
2016,08,13,06,19,15.80
2016,08,13,06,20,15.80
2016,08,13,06,21,15.80
2016,08,13,06,22,15.80
2016,08,13,06,23,15.80
2016,08,13,06,24,15.80
2016,08,13,06,25,15.80
2016,08,13,06,26,15.80
2016,08,13,06,27,15.80
2016,08,13,06,28,15.80
2016,08,13,06,29,15.80
2016,08,13,06,30,15.80
2016,08,13,06,31,15.80
2016,08,13,06,32,15.80
2016,08,13,06,33,15.80
2016,08,13,06,34,15.80
2016,08,13,06,35,15.80
2016,08,13,06,36,15.80
2016,08,13,06,37,15.80
2016,08,13,06,38,15.80
2016,08,13,06,39,15.80
2016,08,13,06,40,15.80
2016,08,13,06,41,15.80
2016,08,13,06,42,15.90
2016,08,13,06,43,15.90
2016,08,13,06,44,15.90
2016,08,13,06,45,16.00
2016,08,13,06,46,16.10
2016,08,13,06,47,16.10
2016,08,13,06,48,16.10
2016,08,13,06,49,16.20
2016,08,13,06,50,16.30
2016,08,13,06,51,16.40
2016,08,13,06,52,16.40
2016,08,13,06,53,16.50
2016,08,13,06,54,16.60
2016,08,13,06,55,16.60
2016,08,13,06,56,16.70
2016,08,13,06,57,16.70
2016,08,13,06,58,16.80
2016,08,13,06,59,16.80
2016,08,13,07,00,16.90
2016,08,13,07,01,16.90
2016,08,13,07,02,17.00
2016,08,13,07,03,17.00
2016,08,13,07,04,17.10
2016,08,13,07,05,17.20
2016,08,13,07,06,17.30
2016,08,13,07,07,17.30
2016,08,13,07,08,17.40
2016,08,13,07,09,17.50
2016,08,13,07,10,17.50
2016,08,13,07,11,17.70
2016,08,13,07,12,17.80
2016,08,13,07,13,17.90
2016,08,13,07,14,18.00
2016,08,13,07,15,18.10
2016,08,13,07,16,18.20
2016,08,13,07,17,18.40
2016,08,13,07,18,18.50
2016,08,13,07,19,18.60
2016,08,13,07,20,18.70
2016,08,13,07,21,18.80
2016,08,13,07,22,18.90
2016,08,13,07,23,18.90
2016,08,13,07,24,19.00
2016,08,13,07,25,19.10
2016,08,13,07,26,19.10
2016,08,13,07,27,19.20
2016,08,13,07,28,19.30
2016,08,13,07,29,19.30
2016,08,13,07,30,19.40
2016,08,13,07,31,19.40
2016,08,13,07,32,19.50
2016,08,13,07,33,19.50
2016,08,13,07,34,19.60
2016,08,13,07,35,19.70
2016,08,13,07,36,19.80
2016,08,13,07,37,19.90
2016,08,13,07,38,19.90
2016,08,13,07,39,20.00
2016,08,13,07,40,20.10
2016,08,13,07,41,20.20
2016,08,13,07,42,20.20
2016,08,13,07,43,20.20
2016,08,13,07,44,20.30
2016,08,13,07,45,20.30
2016,08,13,07,46,20.30
2016,08,13,07,47,20.40
2016,08,13,07,48,20.40
2016,08,13,07,49,20.50
2016,08,13,07,50,20.50
2016,08,13,07,51,20.60
2016,08,13,07,52,20.70
2016,08,13,07,53,20.80
2016,08,13,07,54,20.80
2016,08,13,07,55,20.90
2016,08,13,07,56,21.00
2016,08,13,07,57,21.10
2016,08,13,07,58,21.10
2016,08,13,07,59,21.20
2016,08,13,08,00,21.30
2016,08,13,08,01,21.30
2016,08,13,08,02,21.40
2016,08,13,08,03,21.40
2016,08,13,08,04,21.60
2016,08,13,08,05,21.60
2016,08,13,08,06,21.60
2016,08,13,08,07,21.70
2016,08,13,08,08,21.70
2016,08,13,08,09,21.80
2016,08,13,08,10,21.80
2016,08,13,08,11,21.90
2016,08,13,08,12,21.90
2016,08,13,08,13,22.00
2016,08,13,08,14,22.00
2016,08,13,08,15,22.00
2016,08,13,08,16,22.10
2016,08,13,08,17,22.10
2016,08,13,08,18,22.20
2016,08,13,08,19,22.20
2016,08,13,08,20,22.20
2016,08,13,08,21,22.30
2016,08,13,08,22,22.30
2016,08,13,08,23,22.30
2016,08,13,08,24,22.30
2016,08,13,08,25,22.30
2016,08,13,08,26,22.40
2016,08,13,08,27,22.40
2016,08,13,08,28,22.40
2016,08,13,08,29,22.50
2016,08,13,08,30,22.50
2016,08,13,08,31,22.60
2016,08,13,08,32,22.60
2016,08,13,08,33,22.60
2016,08,13,08,34,22.60
2016,08,13,08,35,22.70
2016,08,13,08,36,22.70
2016,08,13,08,37,22.80
2016,08,13,08,38,22.80
2016,08,13,08,39,22.90
2016,08,13,08,40,22.90
2016,08,13,08,41,22.90
2016,08,13,08,42,22.90
2016,08,13,08,43,22.90
2016,08,13,08,44,22.90
2016,08,13,08,45,22.90
2016,08,13,08,46,22.90
2016,08,13,08,47,22.90
2016,08,13,08,48,22.80
2016,08,13,08,49,22.80
2016,08,13,08,50,22.80
2016,08,13,08,51,22.90
2016,08,13,08,52,22.90
2016,08,13,08,53,22.90
2016,08,13,08,54,22.90
2016,08,13,08,55,23.10
2016,08,13,08,56,23.10
2016,08,13,08,57,23.20
2016,08,13,08,58,23.20
2016,08,13,08,59,23.30
2016,08,13,09,00,23.30
2016,08,13,09,01,23.30
2016,08,13,09,02,23.30
2016,08,13,09,03,23.30
2016,08,13,09,04,23.30
2016,08,13,09,05,23.30
2016,08,13,09,06,23.30
2016,08,13,09,07,23.40
2016,08,13,09,08,23.40
2016,08,13,09,09,23.40
2016,08,13,09,10,23.40
2016,08,13,09,11,23.60
2016,08,13,09,12,23.60
2016,08,13,09,13,23.70
2016,08,13,09,14,23.70
2016,08,13,09,15,23.80
2016,08,13,09,16,23.80
2016,08,13,09,17,23.90
2016,08,13,09,18,23.90
2016,08,13,09,19,24.00
2016,08,13,09,20,24.10
2016,08,13,09,21,24.10
2016,08,13,09,22,24.10
2016,08,13,09,23,24.10
2016,08,13,09,24,24.10
2016,08,13,09,25,24.10
2016,08,13,09,26,24.20
2016,08,13,09,27,24.20
2016,08,13,09,28,24.20
2016,08,13,09,29,24.30
2016,08,13,09,30,24.30
2016,08,13,09,31,24.40
2016,08,13,09,32,24.50
2016,08,13,09,33,24.50
2016,08,13,09,34,24.50
2016,08,13,09,35,24.50
2016,08,13,09,36,24.50
2016,08,13,09,37,24.50
2016,08,13,09,38,24.40
2016,08,13,09,39,24.30
2016,08,13,09,40,24.30
2016,08,13,09,41,24.30
2016,08,13,09,42,24.20
2016,08,13,09,43,24.10
2016,08,13,09,44,24.00
2016,08,13,09,45,23.90
2016,08,13,09,46,23.80
2016,08,13,09,47,23.80
2016,08,13,09,48,23.80
2016,08,13,09,49,23.90
2016,08,13,09,50,23.90
2016,08,13,09,51,23.90
2016,08,13,09,52,23.90
2016,08,13,09,53,24.00
2016,08,13,09,54,24.10
2016,08,13,09,55,24.10
2016,08,13,09,56,24.10
2016,08,13,09,57,24.10
2016,08,13,09,58,24.20
2016,08,13,09,59,24.30
2016,08,13,10,00,24.30
2016,08,13,10,01,24.30
2016,08,13,10,02,24.30
2016,08,13,10,03,24.20
2016,08,13,10,04,24.20
2016,08,13,10,05,24.10
2016,08,13,10,06,24.10
2016,08,13,10,07,24.10
2016,08,13,10,08,24.10
2016,08,13,10,09,24.10
2016,08,13,10,10,24.10
2016,08,13,10,11,24.10
2016,08,13,10,12,24.10
2016,08,13,10,13,24.10
2016,08,13,10,14,24.10
2016,08,13,10,15,24.10
2016,08,13,10,16,24.10
2016,08,13,10,17,24.10
2016,08,13,10,18,24.10
2016,08,13,10,19,24.10
2016,08,13,10,20,24.10
2016,08,13,10,21,24.10
2016,08,13,10,22,24.10
2016,08,13,10,23,24.10
2016,08,13,10,24,24.10
2016,08,13,10,25,24.10
2016,08,13,10,26,24.10
2016,08,13,10,27,24.10
2016,08,13,10,28,24.10
2016,08,13,10,29,24.10
2016,08,13,10,30,24.10
2016,08,13,10,31,24.10
2016,08,13,10,32,24.20
2016,08,13,10,33,24.30
2016,08,13,10,34,24.40
2016,08,13,10,35,24.40
2016,08,13,10,36,24.50
2016,08,13,10,37,24.60
2016,08,13,10,38,24.60
2016,08,13,10,39,24.60
2016,08,13,10,40,24.60
2016,08,13,10,41,24.60
2016,08,13,10,42,24.70
2016,08,13,10,43,24.70
2016,08,13,10,44,24.80
2016,08,13,10,45,24.90
2016,08,13,10,46,24.90
2016,08,13,10,47,25.00
2016,08,13,10,48,25.00
2016,08,13,10,49,25.00
2016,08,13,10,50,25.10
2016,08,13,10,51,25.20
2016,08,13,10,52,25.20
2016,08,13,10,53,25.30
2016,08,13,10,54,25.30
2016,08,13,10,55,25.30
2016,08,13,10,56,25.30
2016,08,13,10,57,25.40
2016,08,13,10,58,25.40
2016,08,13,10,59,25.50
2016,08,13,11,00,25.50
2016,08,13,11,01,25.60
2016,08,13,11,02,25.70
2016,08,13,11,03,25.70
2016,08,13,11,04,25.80
2016,08,13,11,05,25.90
2016,08,13,11,06,26.00
2016,08,13,11,07,26.00
2016,08,13,11,08,26.00
2016,08,13,11,09,26.00
2016,08,13,11,10,26.00
2016,08,13,11,11,25.90
2016,08,13,11,12,25.90
2016,08,13,11,13,25.90
2016,08,13,11,14,25.90
2016,08,13,11,15,25.90
2016,08,13,11,16,25.90
2016,08,13,11,17,25.90
2016,08,13,11,18,25.90
2016,08,13,11,19,25.90
2016,08,13,11,20,25.90
2016,08,13,11,21,25.80
2016,08,13,11,22,25.80
2016,08,13,11,23,25.70
2016,08,13,11,24,25.80
2016,08,13,11,25,25.70
2016,08,13,11,26,25.60
2016,08,13,11,27,25.60
2016,08,13,11,28,25.60
2016,08,13,11,29,25.60
2016,08,13,11,30,25.60
2016,08,13,11,31,25.60
2016,08,13,11,32,25.60
2016,08,13,11,33,25.60
2016,08,13,11,34,25.40
2016,08,13,11,35,25.20
2016,08,13,11,36,25.20
2016,08,13,11,37,25.20
2016,08,13,11,38,25.30
2016,08,13,11,39,25.40
2016,08,13,11,40,25.40
2016,08,13,11,41,25.40
2016,08,13,11,42,25.50
2016,08,13,11,43,25.50
2016,08,13,11,44,25.50
2016,08,13,11,45,25.60
2016,08,13,11,46,25.60
2016,08,13,11,47,25.70
2016,08,13,11,48,25.80
2016,08,13,11,49,25.80
2016,08,13,11,50,25.80
2016,08,13,11,51,25.80
2016,08,13,11,52,25.70
2016,08,13,11,53,25.80
2016,08,13,11,54,25.80
2016,08,13,11,55,25.70
2016,08,13,11,56,25.70
2016,08,13,11,57,25.70
2016,08,13,11,58,25.70
2016,08,13,11,59,25.70
2016,08,13,12,00,25.70
2016,08,13,12,01,25.70
2016,08,13,12,02,25.70
2016,08,13,12,03,25.80
2016,08,13,12,04,25.80
2016,08,13,12,05,25.80
2016,08,13,12,06,25.70
2016,08,13,12,07,25.70
2016,08,13,12,08,25.70
2016,08,13,12,09,25.60
2016,08,13,12,10,25.70
2016,08,13,12,11,25.70
2016,08,13,12,12,25.80
2016,08,13,12,13,25.70
2016,08,13,12,14,25.70
2016,08,13,12,15,25.60
2016,08,13,12,16,25.60
2016,08,13,12,17,25.70
2016,08,13,12,18,25.80
2016,08,13,12,19,25.90
2016,08,13,12,20,25.90
2016,08,13,12,21,26.00
2016,08,13,12,22,26.00
2016,08,13,12,23,26.10
2016,08,13,12,24,26.10
2016,08,13,12,25,26.00
2016,08,13,12,26,25.90
2016,08,13,12,27,25.80
2016,08,13,12,28,25.70
2016,08,13,12,29,25.80
2016,08,13,12,30,25.90
2016,08,13,12,31,25.90
2016,08,13,12,32,26.00
2016,08,13,12,33,26.00
2016,08,13,12,34,26.00
2016,08,13,12,35,26.10
2016,08,13,12,36,26.20
2016,08,13,12,37,26.20
2016,08,13,12,38,26.20
2016,08,13,12,39,26.00
2016,08,13,12,40,25.90
2016,08,13,12,41,25.80
2016,08,13,12,42,25.70
2016,08,13,12,43,25.70
2016,08,13,12,44,25.70
2016,08,13,12,45,25.70
2016,08,13,12,46,25.80
2016,08,13,12,47,25.90
2016,08,13,12,48,26.00
2016,08,13,12,49,26.20
2016,08,13,12,50,26.30
2016,08,13,12,51,26.50
2016,08,13,12,52,26.60
2016,08,13,12,53,26.70
2016,08,13,12,54,26.70
2016,08,13,12,55,26.70
2016,08,13,12,56,26.70
2016,08,13,12,57,26.70
2016,08,13,12,58,26.70
2016,08,13,12,59,26.70
2016,08,13,13,00,26.60
2016,08,13,13,01,26.60
2016,08,13,13,02,26.60
2016,08,13,13,03,26.50
2016,08,13,13,04,26.60
2016,08,13,13,05,26.60
2016,08,13,13,06,26.60
2016,08,13,13,07,26.60
2016,08,13,13,08,26.70
2016,08,13,13,09,26.80
2016,08,13,13,10,26.90
2016,08,13,13,11,26.90
2016,08,13,13,12,26.90
2016,08,13,13,13,26.90
2016,08,13,13,14,26.90
2016,08,13,13,15,26.90
2016,08,13,13,16,26.80
2016,08,13,13,17,26.70
2016,08,13,13,18,26.70
2016,08,13,13,19,26.70
2016,08,13,13,20,26.60
2016,08,13,13,21,26.60
2016,08,13,13,22,26.60
2016,08,13,13,23,26.60
2016,08,13,13,24,26.70
2016,08,13,13,25,26.70
2016,08,13,13,26,26.70
2016,08,13,13,27,26.70
2016,08,13,13,28,26.80
2016,08,13,13,29,26.90
2016,08,13,13,30,26.90
2016,08,13,13,31,26.80
2016,08,13,13,32,26.80
2016,08,13,13,33,26.80
2016,08,13,13,34,26.80
2016,08,13,13,35,26.80
2016,08,13,13,36,26.90
2016,08,13,13,37,26.90
2016,08,13,13,38,26.70
2016,08,13,13,39,26.70
2016,08,13,13,40,26.70
2016,08,13,13,41,26.80
2016,08,13,13,42,26.80
2016,08,13,13,43,26.80
2016,08,13,13,44,26.90
2016,08,13,13,45,26.90
2016,08,13,13,46,26.90
2016,08,13,13,47,26.90
2016,08,13,13,48,26.90
2016,08,13,13,49,27.00
2016,08,13,13,50,27.10
2016,08,13,13,51,27.10
2016,08,13,13,52,27.10
2016,08,13,13,53,27.20
2016,08,13,13,54,27.30
2016,08,13,13,55,27.30
2016,08,13,13,56,27.40
2016,08,13,13,57,27.60
2016,08,13,13,58,27.60
2016,08,13,13,59,27.60
2016,08,13,14,00,27.60
2016,08,13,14,01,27.60
2016,08,13,14,02,27.70
2016,08,13,14,03,27.70
2016,08,13,14,04,27.70
2016,08,13,14,05,27.80
2016,08,13,14,06,27.90
2016,08,13,14,07,27.80
2016,08,13,14,08,27.70
2016,08,13,14,09,27.70
2016,08,13,14,10,27.80
2016,08,13,14,11,27.80
2016,08,13,14,12,27.80
2016,08,13,14,13,27.90
2016,08,13,14,14,27.90
2016,08,13,14,15,27.90
2016,08,13,14,16,27.80
2016,08,13,14,17,27.90
2016,08,13,14,18,27.90
2016,08,13,14,19,27.90
2016,08,13,14,20,27.80
2016,08,13,14,21,27.90
2016,08,13,14,22,27.90
2016,08,13,14,23,28.00
2016,08,13,14,24,28.10
2016,08,13,14,25,28.10
2016,08,13,14,26,28.10
2016,08,13,14,27,27.80
2016,08,13,14,28,27.70
2016,08,13,14,29,27.70
2016,08,13,14,30,27.80
2016,08,13,14,31,27.90
2016,08,13,14,32,27.90
2016,08,13,14,33,28.00
2016,08,13,14,34,28.10
2016,08,13,14,35,28.00
2016,08,13,14,36,28.00
2016,08,13,14,37,27.90
2016,08,13,14,38,27.90
2016,08,13,14,39,27.70
2016,08,13,14,40,27.60
2016,08,13,14,41,27.40
2016,08,13,14,42,27.40
2016,08,13,14,43,27.40
2016,08,13,14,44,27.60
2016,08,13,14,45,27.60
2016,08,13,14,46,27.60
2016,08,13,14,47,27.50
2016,08,13,14,48,27.40
2016,08,13,14,49,27.40
2016,08,13,14,50,27.40
2016,08,13,14,51,27.50
2016,08,13,14,52,27.40
2016,08,13,14,53,27.40
2016,08,13,14,54,27.50
2016,08,13,14,55,27.60
2016,08,13,14,56,27.50
2016,08,13,14,57,27.40
2016,08,13,14,58,27.30
2016,08,13,14,59,27.30
2016,08,13,15,00,27.30
2016,08,13,15,01,27.30
2016,08,13,15,02,27.30
2016,08,13,15,03,27.30
2016,08,13,15,04,27.30
2016,08,13,15,05,27.30
2016,08,13,15,06,27.30
2016,08,13,15,07,27.30
2016,08,13,15,08,27.20
2016,08,13,15,09,27.10
2016,08,13,15,10,27.00
2016,08,13,15,11,26.90
2016,08,13,15,12,27.00
2016,08,13,15,13,27.10
2016,08,13,15,14,27.10
2016,08,13,15,15,27.10
2016,08,13,15,16,27.10
2016,08,13,15,17,27.20
2016,08,13,15,18,27.10
2016,08,13,15,19,27.10
2016,08,13,15,20,27.10
2016,08,13,15,21,27.00
2016,08,13,15,22,26.90
2016,08,13,15,23,26.90
2016,08,13,15,24,26.80
2016,08,13,15,25,26.80
2016,08,13,15,26,26.80
2016,08,13,15,27,26.80
2016,08,13,15,28,26.80
2016,08,13,15,29,26.70
2016,08,13,15,30,26.50
2016,08,13,15,31,26.40
2016,08,13,15,32,26.40
2016,08,13,15,33,26.40
2016,08,13,15,34,26.40
2016,08,13,15,35,26.50
2016,08,13,15,36,26.60
2016,08,13,15,37,26.60
2016,08,13,15,38,26.60
2016,08,13,15,39,26.60
2016,08,13,15,40,26.60
2016,08,13,15,41,26.60
2016,08,13,15,42,26.70
2016,08,13,15,43,26.80
2016,08,13,15,44,26.80
2016,08,13,15,45,26.80
2016,08,13,15,46,26.80
2016,08,13,15,47,26.80
2016,08,13,15,48,26.90
2016,08,13,15,49,26.90
2016,08,13,15,50,26.90
2016,08,13,15,51,26.90
2016,08,13,15,52,26.90
2016,08,13,15,53,26.90
2016,08,13,15,54,27.00
2016,08,13,15,55,27.10
2016,08,13,15,56,27.20
2016,08,13,15,57,27.20
2016,08,13,15,58,27.30
2016,08,13,15,59,27.30
2016,08,13,16,00,27.30
2016,08,13,16,01,27.30
2016,08,13,16,02,27.30
2016,08,13,16,03,27.30
2016,08,13,16,04,27.20
2016,08,13,16,05,27.10
2016,08,13,16,06,27.10
2016,08,13,16,07,27.00
2016,08,13,16,08,26.80
2016,08,13,16,09,26.70
2016,08,13,16,10,26.70
2016,08,13,16,11,26.70
2016,08,13,16,12,26.80
2016,08,13,16,13,26.80
2016,08,13,16,14,26.80
2016,08,13,16,15,26.70
2016,08,13,16,16,26.60
2016,08,13,16,17,26.60
2016,08,13,16,18,26.40
2016,08,13,16,19,26.30
2016,08,13,16,20,26.40
2016,08,13,16,21,26.40
2016,08,13,16,22,26.30
2016,08,13,16,23,26.20
2016,08,13,16,24,26.10
2016,08,13,16,25,26.10
2016,08,13,16,26,26.20
2016,08,13,16,27,26.30
2016,08,13,16,28,26.30
2016,08,13,16,29,26.30
2016,08,13,16,30,26.10
2016,08,13,16,31,26.00
2016,08,13,16,32,25.90
2016,08,13,16,33,25.80
2016,08,13,16,34,25.60
2016,08,13,16,35,25.60
2016,08,13,16,36,25.50
2016,08,13,16,37,25.40
2016,08,13,16,38,25.30
2016,08,13,16,39,25.20
2016,08,13,16,40,25.30
2016,08,13,16,41,25.30
2016,08,13,16,42,25.40
2016,08,13,16,43,25.40
2016,08,13,16,44,25.40
2016,08,13,16,45,25.50
2016,08,13,16,46,25.50
2016,08,13,16,47,25.60
2016,08,13,16,48,25.60
2016,08,13,16,49,25.60
2016,08,13,16,50,25.60
2016,08,13,16,51,25.60
2016,08,13,16,52,25.50
2016,08,13,16,53,25.50
2016,08,13,16,54,25.50
2016,08,13,16,55,25.60
2016,08,13,16,56,25.60
2016,08,13,16,57,25.70
2016,08,13,16,58,25.80
2016,08,13,16,59,25.90
2016,08,13,17,00,26.00
2016,08,13,17,01,26.00
2016,08,13,17,02,26.10
2016,08,13,17,03,26.20
2016,08,13,17,04,26.30
2016,08,13,17,05,26.30
2016,08,13,17,06,26.30
2016,08,13,17,07,26.30
2016,08,13,17,08,26.20
2016,08,13,17,09,26.00
2016,08,13,17,10,25.90
2016,08,13,17,11,25.90
2016,08,13,17,12,25.90
2016,08,13,17,13,25.90
2016,08,13,17,14,25.90
2016,08,13,17,15,25.80
2016,08,13,17,16,25.80
2016,08,13,17,17,25.80
2016,08,13,17,18,25.80
2016,08,13,17,19,25.80